Theta_e
330 331 331 333 336 337 338 336 337 340 344 344 346 349 349 350 348 346 346 346 343 345 345 345 344 342 343 345 346 346 346 343 342 338 339 340 340 345 344 338 337 343 353 349
329 331 331 332 333 333 335 335 337 338 339 341 342 344 348 351 350 346 348 344 341 344 347 344 346 344 344 345 346 347 346 343 338 339 340 341 345 345 342 347 345 340 348 350
330 330 331 332 331 333 333 334 336 337 335 334 341 343 346 340 350 347 346 346 343 345 347 347 345 344 345 347 347 346 347 343 342 342 342 342 342 345 345 347 346 345 345 349
333 331 330 331 330 331 332 334 336 335 334 335 341 342 346 342 339 344 346 345 345 344 345 347 347 346 345 347 347 345 347 343 345 344 346 344 343 341 340 347 348 344 344 348
332 333 331 330 329 330 331 333 333 334 334 335 341 343 347 345 347 342 348 345 345 344 345 346 347 347 346 348 348 347 347 347 345 347 346 344 347 344 345 345 346 344 344 346
333 331 331 330 329 330 330 332 333 333 336 338 337 342 345 345 340 343 347 347 346 345 345 345 345 345 345 347 349 349 347 347 347 343 344 341 346 347 347 348 344 347 346 343
332 331 330 329 328 328 329 332 334 335 339 341 338 344 343 343 342 343 345 346 347 346 345 345 345 346 345 346 348 349 348 346 347 349 342 342 343 345 344 347 344 343 341 347
331 330 330 329 328 326 328 330 334 337 339 336 341 344 343 342 339 338 340 342 345 346 346 343 345 346 345 346 346 349 349 347 345 348 344 340 341 347 342 342 348 344 345 347
331 330 331 330 329 328 327 331 331 331 333 333 333 337 337 338 339 339 340 340 341 344 346 344 344 346 345 346 345 348 348 348 347 349 348 345 341 342 348 348 345 346 346 346
332 330 331 330 328 327 326 330 332 332 335 333 332 338 343 344 343 341 341 341 341 343 346 345 345 346 346 347 346 349 349 348 346 350 349 345 343 340 348 347 344 340 348 349
331 331 331 331 330 328 326 328 330 332 332 335 334 339 341 341 338 339 342 342 343 342 344 344 346 347 347 347 347 349 350 350 350 350 351 350 345 345 344 347 350 346 349 347
332 332 332 331 331 331 329 328 329 333 334 333 334 335 338 340 340 342 342 334 340 341 341 343 347 348 347 347 348 348 350 351 352 352 351 350 345 350 350 347 348 348 345 341
332 332 333 333 332 332 332 330 328 330 330 336 333 337 339 338 337 341 343 340 341 340 342 343 347 348 348 348 347 347 350 349 347 347 351 352 350 348 350 350 347 347 351 349
329 330 332 333 333 333 334 333 329 328 332 332 332 334 338 337 336 341 345 344 342 344 345 343 347 348 348 350 348 349 350 348 348 347 351 352 352 348 351 351 353 349 347 349
331 332 331 331 331 331 332 333 333 330 330 333 333 334 339 338 337 341 343 345 345 347 348 347 347 348 350 351 351 350 350 348 349 351 351 352 342 349 350 352 352 351 350 350
335 337 337 333 331 331 331 331 332 333 330 330 331 332 337 334 339 338 341 344 346 348 348 348 348 350 351 353 352 350 353 353 351 349 351 350 348 349 350 348 347 348 347 347
336 337 339 339 335 334 333 332 332 333 333 330 332 334 340 339 341 344 346 345 347 348 347 347 349 351 352 353 352 353 353 352 351 350 353 352 348 349 351 349 350 351 349 343
332 336 335 338 338 341 336 333 333 333 333 333 333 334 338 335 336 336 343 345 347 347 347 348 350 353 353 353 355 353 354 353 349 352 353 353 349 349 351 352 351 350 350 350
326 331 334 339 339 338 335 335 335 334 335 336 332 333 335 336 336 335 341 343 346 346 347 348 350 352 352 352 353 354 354 354 354 354 353 353 352 352 352 351 350 350 348 349
324 328 333 338 339 340 340 333 333 333 337 337 336 336 335 336 338 338 335 340 345 346 346 346 349 348 351 354 355 355 356 356 355 354 354 353 353 352 351 350 349 345 343 343
327 330 331 334 338 335 335 335 333 337 340 334 337 337 338 339 341 337 337 334 344 345 344 343 343 346 347 349 352 355 355 355 355 355 354 352 351 349 348 346 346 346 344 340
330 336 333 333 337 338 334 336 341 344 339 340 340 338 340 338 335 336 340 342 342 344 343 343 344 345 347 349 352 354 353 353 352 352 351 350 348 342 344 341 341 340 341 340
335 335 334 333 335 334 334 336 338 337 333 335 340 340 338 338 342 337 339 335 339 343 343 345 347 349 350 350 351 349 348 347 347 347 346 345 345 344 343 346 346 342 339 341
331 329 333 328 328 326 329 334 334 334 337 332 336 337 338 338 339 336 331 332 331 344 346 349 351 352 353 351 348 346 345 343 346 346 346 344 344 344 344 344 344 345 344 343
326 329 330 330 332 331 333 331 332 331 331 332 332 334 338 340 340 333 333 332 333 345 348 350 350 354 353 347 345 345 335 341 345 345 346 345 344 344 344 343 339 339 337 337
321 324 332 332 329 329 332 330 328 329 328 331 329 331 335 338 340 341 335 337 341 346 348 350 351 354 350 347 346 344 328 328 341 343 343 342 341 340 343 343 339 338 337 337
Wind_Speed
17 12 14 18 17 20 9 9 13 8 10 4 9 14 18 23 18 18 22 25 21 25 21 20 16 17 18 14 14 10 8 11 13 22 20 16 19 9 6 9 5 11 4 6
14 17 16 18 18 17 9 14 16 1 4 7 11 13 8 17 21 22 24 22 25 23 26 20 22 17 19 19 17 15 11 14 16 12 13 15 10 7 9 4 7 8 3 7
17 17 17 18 15 18 10 14 16 3 7 7 5 13 5 13 14 23 23 26 27 22 32 28 24 25 23 22 21 17 15 17 13 14 12 12 10 10 13 13 7 11 8 2
14 18 18 9 12 17 14 13 9 9 12 14 10 10 7 4 17 18 27 28 26 23 27 28 24 28 25 26 21 19 19 17 20 14 11 12 9 8 13 16 9 4 5 4
16 16 15 16 20 12 15 15 2 14 14 17 14 9 8 17 14 32 27 31 26 26 34 32 30 34 27 27 25 21 19 18 19 18 18 16 15 10 7 10 16 11 8 12
19 19 15 15 14 14 18 16 9 16 14 13 14 11 11 7 5 15 16 32 30 26 29 35 33 27 27 27 23 22 18 20 21 21 21 18 16 14 9 8 18 12 10 6
18 20 18 14 12 17 16 13 10 12 11 12 4 11 4 15 15 18 17 26 34 30 27 25 30 29 25 27 25 25 19 20 22 21 20 19 19 14 15 9 13 13 8 12
14 13 23 17 19 15 17 18 12 16 8 7 18 10 11 14 18 9 5 7 25 30 33 31 31 33 30 29 26 27 22 18 22 21 18 19 17 12 16 16 12 14 11 8
18 19 14 19 15 15 19 15 16 22 21 15 12 5 8 8 6 11 9 10 7 20 36 35 32 31 33 28 29 27 23 18 20 21 19 18 18 18 16 16 17 14 14 9
18 17 18 4 8 16 18 17 14 11 14 13 11 4 7 10 11 7 10 10 8 12 33 37 40 34 35 29 27 24 25 20 19 20 19 20 18 16 18 14 15 20 9 12
19 16 17 17 13 14 13 16 18 17 11 12 11 1 6 8 11 15 11 6 13 11 15 23 32 34 35 32 30 27 24 21 20 22 21 18 18 14 19 15 11 16 20 20
16 16 16 20 21 11 14 18 19 13 14 13 13 13 14 12 13 13 30 28 21 11 14 21 37 37 34 33 30 30 29 24 23 22 23 22 16 18 17 15 18 19 15 20
11 9 11 16 17 19 16 16 20 17 17 17 12 4 8 12 4 8 32 32 13 7 13 18 36 38 36 37 35 31 32 30 26 25 23 23 20 20 20 21 16 18 19 17
6 12 17 16 16 17 1 19 17 22 15 16 15 8 11 11 11 12 14 16 12 13 15 17 28 34 28 30 36 34 31 32 29 19 23 24 23 21 21 19 20 19 20 19
9 19 20 24 28 27 20 17 24 20 20 19 16 10 10 6 7 9 13 16 17 17 17 16 18 32 30 29 26 26 28 28 26 26 25 26 18 22 23 24 23 23 23 22
11 11 17 26 26 28 28 21 23 23 20 22 22 18 13 21 11 20 29 23 20 21 20 19 16 25 24 24 25 23 25 29 30 30 28 27 23 22 24 23 20 21 21 23
16 13 12 18 19 22 25 27 23 21 20 21 18 15 14 7 6 19 18 24 23 23 23 22 22 22 22 23 26 25 28 27 30 25 25 23 24 22 20 19 17 15 16 17
20 17 12 14 21 22 21 20 23 20 12 23 15 10 11 8 6 8 12 24 25 24 24 24 23 23 23 21 20 22 22 18 22 23 21 18 18 18 16 16 16 14 15 16
22 18 15 11 17 23 22 22 22 15 20 24 13 15 19 28 13 7 16 24 24 24 24 24 24 23 23 25 24 23 22 22 20 20 21 17 15 14 16 17 16 17 17 17
21 21 15 9 7 23 23 22 30 14 12 20 11 9 4 10 3 5 21 17 23 23 23 23 24 21 21 28 26 23 22 21 20 18 18 17 14 13 14 16 16 13 11 12
13 7 13 15 12 8 28 22 20 13 2 15 16 14 10 3 5 13 12 54 27 28 24 25 25 25 26 22 21 24 21 19 15 13 12 11 11 10 9 8 8 11 12 14
17 5 8 9 13 19 10 17 2 5 17 21 18 15 7 10 16 4 25 19 19 30 29 27 25 25 23 23 23 21 18 16 15 15 15 16 15 10 8 8 9 10 12 12
4 7 2 9 8 12 20 23 8 6 5 17 23 26 16 8 21 29 30 25 19 5 28 26 27 28 26 24 23 20 17 16 15 14 12 9 8 6 7 7 8 13 11 12
6 8 6 4 1 8 21 17 21 21 4 12 2 24 13 11 18 28 46 44 45 38 26 30 31 29 27 24 21 19 17 12 12 11 11 9 9 9 9 10 12 14 16 15
15 3 5 7 7 15 8 8 9 21 17 8 14 14 12 12 7 31 32 42 48 46 41 40 35 31 29 26 21 16 14 14 14 11 10 10 9 12 11 11 11 14 16 18
21 11 4 5 8 11 14 7 8 12 27 16 19 14 9 12 9 17 33 44 55 38 40 39 38 35 31 26 22 17 14 13 13 11 9 8 7 6 10 10 10 12 14 19
Wind_Direction
232 240 241 250 254 283 284 315 287 131 158 225 255 222 196 183 205 203 202 206 198 190 181 170 180 173 169 164 163 177 164 157 164 160 166 162 164 154 183 206 218 162 111 193
243 239 245 264 276 282 319 285 280 37 161 229 260 263 213 178 193 198 204 203 208 206 171 182 180 177 177 172 174 178 193 153 155 171 161 145 160 199 180 247 246 187 257 236
247 254 235 237 261 268 260 268 282 317 312 287 269 275 71 313 191 190 210 214 208 209 174 177 190 178 179 177 179 182 197 163 148 158 154 162 174 197 205 209 213 217 217 105
250 259 264 251 256 270 265 281 313 321 293 286 208 275 137 76 309 280 194 210 216 206 184 182 187 179 184 181 183 185 199 186 170 180 177 169 186 206 179 184 208 241 186 154
259 259 247 256 265 260 264 275 261 290 276 276 241 241 161 156 185 248 189 199 203 206 189 188 190 188 184 178 185 192 199 202 183 181 185 183 192 207 225 213 206 214 206 203
267 265 272 252 263 249 272 258 300 272 259 263 291 248 144 174 197 221 202 191 194 209 194 182 184 189 183 174 178 191 198 200 191 196 194 194 194 198 221 192 208 206 211 237
256 251 248 258 262 270 229 253 251 256 239 259 57 4 221 202 212 217 195 192 188 193 195 171 180 182 183 174 177 192 202 197 196 207 208 198 197 201 216 208 211 220 231 223
257 236 213 218 222 250 235 233 249 263 303 290 153 214 133 197 173 158 156 186 181 190 180 183 187 187 178 179 180 184 198 200 197 205 214 209 200 191 199 211 219 228 239 225
273 275 311 202 209 215 253 233 258 273 279 278 273 190 190 112 70 146 171 175 178 182 167 185 191 177 181 182 180 191 201 203 198 203 211 211 213 203 199 215 237 217 260 291
246 268 276 243 189 219 237 260 240 238 272 280 274 61 83 34 2 282 165 177 176 173 173 182 182 182 179 179 182 190 204 210 203 196 217 216 214 209 204 209 224 218 230 269
242 249 263 277 213 226 214 239 258 271 274 292 292 116 133 143 99 306 222 103 151 169 183 182 173 168 173 181 185 185 199 208 204 193 216 212 220 220 212 212 217 228 238 235
243 246 243 254 266 238 234 237 226 246 256 257 284 311 152 185 191 202 113 146 271 156 179 185 164 168 179 185 187 188 195 205 200 201 206 223 219 214 229 232 221 237 247 244
352 293 276 260 255 253 227 225 250 236 241 263 271 205 167 204 188 181 136 193 132 168 165 184 169 173 178 184 188 192 195 205 208 200 200 222 228 220 227 238 229 236 247 250
305 277 271 278 278 273 294 279 224 247 242 244 255 227 175 196 215 154 130 127 144 166 167 183 164 170 177 172 179 188 200 207 215 200 202 220 234 228 225 240 237 240 238 250
248 262 268 274 280 287 283 222 263 234 258 262 259 232 171 342 305 140 143 150 162 160 164 173 179 166 173 177 193 203 196 209 215 204 210 219 244 230 231 229 232 237 240 246
296 307 298 255 263 273 279 262 264 265 228 244 255 258 146 192 195 138 201 162 171 157 166 168 181 159 164 170 175 177 191 201 205 209 215 225 231 233 234 241 240 245 248 254
292 293 294 288 287 277 262 259 258 244 262 231 246 255 109 109 132 170 170 171 169 164 166 168 175 168 176 180 191 199 207 211 208 204 216 232 224 238 247 240 242 248 261 249
271 257 261 274 295 263 267 275 279 270 294 260 235 242 137 121 291 288 240 174 166 168 163 169 167 170 178 181 187 189 190 197 194 204 214 224 227 232 228 233 240 250 260 259
248 256 258 240 253 277 267 265 279 258 247 278 260 252 158 148 176 193 254 175 166 164 163 162 164 167 175 174 175 180 185 193 201 208 216 216 225 228 229 241 252 259 264 268
230 241 247 192 226 251 270 253 256 264 273 265 332 299 205 140 138 247 233 237 168 162 164 164 160 162 165 157 166 172 179 189 200 200 204 211 225 233 241 250 257 270 276 281
271 246 257 238 227 213 264 315 282 265 197 269 348 312 144 166 174 164 270 227 181 155 165 155 157 157 158 165 172 169 177 181 180 182 193 200 214 228 232 244 247 252 261 266
271 176 203 266 261 235 335 317 328 21 17 5 344 333 292 195 239 127 108 110 97 152 154 156 157 157 162 161 160 164 164 168 176 190 194 204 214 210 232 245 271 262 257 269
33 343 277 194 186 295 343 343 53 64 74 12 8 335 340 339 123 109 112 121 164 3 155 164 158 153 159 164 164 159 166 177 183 189 194 191 199 208 229 242 264 287 291 288
4 75 288 41 139 298 292 23 5 352 40 86 319 267 311 356 143 133 128 161 186 218 211 166 159 157 158 163 160 169 177 177 175 181 191 206 221 232 244 259 273 282 286 280
301 148 187 217 271 275 161 90 21 353 337 315 300 310 319 327 137 145 160 164 175 201 190 167 162 164 159 166 166 177 172 166 173 190 203 218 233 248 254 268 267 256 268 282
283 290 293 300 106 19 308 219 281 330 317 330 321 306 306 301 307 178 153 165 186 198 167 162 162 162 163 162 164 178 169 169 172 186 197 202 224 250 264 269 282 278 275 273